Weather Roundup
Issued by NWS

Home | Current Version | Previous Version | Graphics & Text | Print | Product List | Glossary Off
Versions: 1 2 3 4 5 6 7 8 9 10 11 12 13 14 15 16 17 18 19 20 21 22 23 24 25 26 27 28 29 30 31 32 33 34 35 36 37 38 39 40 41 42 43 44 45 46 47 48 49 50

000
NZUS93 KARX 201910
HRRWXR

CURRENT HOURLY OBSERVATIONS ACROSS
MUCH OF THE UPPER MISSISSIPPI VALLEY
NATIONAL WEATHER SERVICE LA CROSSE WI
200 PM CDT SAT SEP 20 2014


...SOUTHEAST MINNESOTA...


CITY           SKY/WX    TMP DP  RH WIND       PRES   REMARKS
ROCHESTER      SUNNY     75  56  51 W17G24    29.82S
ROCHESTER/MAYO FAIR      73  52  47 W24G35    29.79F
WINONA         MOSUNNY   77  59  53 NW13      29.77R
AUSTIN         SUNNY     73  57  56 W16G22    29.82S
ALBERT LEA     SUNNY     75  55  50 NW9G20    29.82F
DODGE CENTER   SUNNY     73  55  53 NW17      29.81F
PRESTON        SUNNY     74  63  69 NW16G24   29.81S
OWATONNA       SUNNY     75  52  43 W13G18    29.81F
FARIBAULT      SUNNY     79  48  34 W8G17     29.80F
$$

...ELSEWHERE IN MINNESOTA...


CITY           SKY/WX    TMP DP  RH WIND       PRES   REMARKS
MINNEAPOLIS    MOSUNNY   75  54  47 W15       29.77F
INTNL FALLS    MOSUNNY   60  48  64 W7        29.71F
DULUTH         MOSUNNY   68  47  46 W13       29.71F
RED WING       SUNNY     77  54  44 W14       29.76F
REDWOOD FALLS  SUNNY     78  55  44 W17       29.82F
MANKATO        SUNNY     75  54  46 W14       29.81F
WORTHINGTON    MOSUNNY   77  54  44 W17       29.88F
FAIRMONT       SUNNY     79  55  44 NW14      29.84F
$$

...SOUTHWEST WISCONSIN...


CITY           SKY/WX    TMP DP  RH WIND       PRES   REMARKS
LA CROSSE      MOSUNNY   76  62  62 NW8       29.75F
PRAIRIE DU CHI PTSUNNY   75  62  64 S6        29.78F
BOSCOBEL       PTSUNNY   76  64  66 SW10      29.78S
LONE ROCK      CLOUDY    77  65  66 SW8       29.78F
PLATTEVILLE    CLOUDY    76  64  66 SW14G22   29.83R
FORT MC COY    PTSUNNY   76  60  57 NW12G18   29.76F
CAMP DOUGLAS   PTSUNNY   73  66  78 W14       29.74F
VIROQUA        FAIR      74  62  65 W10G20    29.78F
WIS DELLS      CLOUDY    69  62  80 W6        29.76F
$$

...ELSEWHERE IN WISCONSIN...


CITY           SKY/WX    TMP DP  RH WIND       PRES   REMARKS
MILWAUKEE      PTSUNNY   78  61  55 SW16G23   29.78S
MADISON        LGT RAIN  72  64  76 SW6       29.78F
GREEN BAY      CLOUDY    71  64  78 SW9       29.70F
EAU CLAIRE     MOSUNNY   74  56  53 NW13      29.75F
BLACK RVR FLS  CLOUDY    77  59  54 NW12G20   29.74S
MEDFORD        MOSUNNY   71  56  59 NW10      29.72F
WAUSAU         PTSUNNY   74  58  57 W17G23    29.69F
WIS RAPIDS     CLOUDY    74  63  68 W10       29.74S
MARSHFIELD     PTSUNNY   75  59  57 W15G25    29.73F
RICE LAKE      MOSUNNY   71  54  53 W14G21    29.76F
$$

...NORTHEAST IOWA...


CITY           SKY/WX    TMP DP  RH WIND       PRES   REMARKS
WATERLOO       MOSUNNY   78  64  61 W10       29.81F
DUBUQUE        CLOUDY    72  67  84 SW21G26   29.85R
DECORAH        SUNNY     77  63  61 W10G20    29.79S
MASON CITY     SUNNY     78  60  53 NW16      29.85F
CHARLES CITY   MOSUNNY   77  61  57 NW17G24   29.83S
OELWEIN        SUNNY     75  64  69 W13G20    29.84S
$$

...ELSEWHERE IN IOWA...


CITY           SKY/WX    TMP DP  RH WIND       PRES   REMARKS
DES MOINES     MOSUNNY   82  65  56 W13       29.87R
IOWA CITY      LGT RAIN  74  70  87 S7        29.85F
FORT DODGE     SUNNY     81  61  50 W13G20    29.87F
MARSHALLTOWN   SUNNY     79  64  60 W13       29.84S
CEDAR RAPIDS   CLOUDY    73  70  90 SW8       29.83F
$$

...NORTHERN ILLINOIS...


CITY           SKY/WX    TMP DP  RH WIND       PRES   REMARKS
CHICAGO-OHARE  LGT RAIN  72  69  90 W13G22    29.85S
DUPAGE         LGT RAIN  72  67  84 SW10      29.87R
CHICAGO-MIDWAY LGT RAIN  78  66  66 W12       29.86S
MOLINE         CLOUDY    76  68  76 W7        29.87F
ROCKFORD       CLOUDY    76  64  66 SW14      29.84F
STERLING       CLOUDY    72  66  83 W18G25    29.89R
PEORIA         CLOUDY    79  68  69 W7        29.90S
$$

NOTE: "FAIR" INDICATES FEW OR NO CLOUDS BELOW 12,000 FEET WITH NO
SIGNIFICANT WEATHER AND/OR OBSTRUCTIONS TO VISIBILITY. WIND
SPEEDS ARE IN MILES-PER-HOUR.



USA.gov is the U.S. government's official web portal to all federal, state and local government web resources and services.